Location: Alpha Ridge Park
(39.3209°N, 76.9128°W)
Time: 00:19:24
(UTC-04:00)

deb Explorer IX - All Passes

Search period start: 24 May 2019 00:00
Search period end: 03 June 2019 00:00
Orbit: 538 x 1115 km, 38.8° (Epoch: 22 May)

Date Brightness Start Highest point End Pass type
(mag) Time Alt. Az. Time Alt. Az. Time Alt. Az.
24 May - 01:21:43 10° S 01:24:08 15° SSE 01:26:30 10° ESE night (unlit)
24 May - 03:06:28 10° WSW 03:10:24 52° SSE 03:14:26 10° E visible
24 May - 04:53:00 10° W 04:57:05 85° S 05:01:33 10° E visible
24 May - 06:39:38 10° W 06:43:52 56° SSW 06:48:41 10° ESE daylight
24 May - 08:26:57 10° WSW 08:30:26 20° SSW 08:34:19 10° SSE daylight
25 May - 00:59:55 10° S 01:02:30 16° SSE 01:05:01 10° ESE night (unlit)
25 May - 02:44:50 10° WSW 02:48:48 53° SSE 02:52:47 10° E visible
25 May - 04:31:26 10° W 04:35:29 85° S 04:39:50 10° E visible
25 May - 06:18:06 10° W 06:22:14 54° SSW 06:26:53 10° ESE daylight
25 May - 08:05:30 10° WSW 08:08:46 19° SSW 08:12:21 10° SSE daylight
26 May - 00:38:06 10° S 00:40:52 17° SSE 00:43:32 10° ESE night (unlit)
26 May - 02:23:11 10° WSW 02:27:12 54° SSE 02:31:10 10° E visible
26 May - 04:09:51 10° W 04:13:54 85° S 04:18:09 10° E visible
26 May - 05:56:34 10° W 06:00:37 52° SSW 06:05:06 10° ESE daylight
26 May - 07:44:04 10° WSW 07:47:06 18° SSW 07:50:23 10° SSE daylight
27 May - 00:16:15 10° SSW 00:19:14 18° SSE 00:22:03 10° ESE night (unlit)
27 May - 02:01:31 10° WSW 02:05:37 55° SSE 02:09:34 10° E visible
27 May - 03:48:15 10° W 03:52:18 85° S 03:56:29 10° E visible
27 May - 05:35:02 10° W 05:39:00 50° SSW 05:43:20 10° ESE daylight
27 May - 07:22:38 10° WSW 07:25:26 17° SSW 07:28:26 10° S daylight
27 May - 23:54:24 10° SSW 23:57:35 19° SSE 00:00:35 10° ESE night (unlit)
28 May - 01:39:50 10° WSW 01:44:01 56° SSE 01:47:58 10° E visible
28 May - 03:26:39 10° W 03:30:43 85° S 03:34:50 10° E visible
28 May - 05:13:28 10° W 05:17:23 49° SSW 05:21:36 10° ESE visible
28 May - 07:01:13 10° WSW 07:03:47 15° SSW 07:06:29 10° S daylight
28 May - 23:32:31 10° SSW 23:35:57 20° SSE 23:39:07 10° ESE night (unlit)
29 May - 01:18:07 10° WSW 01:22:25 58° SSE 01:26:24 10° E visible
29 May - 03:05:01 10° W 03:09:07 85° S 03:13:12 10° E visible
29 May - 04:51:53 10° W 04:55:47 47° SSW 04:59:52 10° SE visible
29 May - 06:39:49 10° WSW 06:42:07 14° SSW 06:44:33 10° S daylight
29 May - 23:10:38 10° SSW 23:14:17 21° SSE 23:17:38 10° ESE night (unlit)
30 May - 00:56:23 10° WSW 01:00:48 60° SSE 01:04:50 10° E night (unlit)
30 May - 02:43:21 10° W 02:47:32 84° S 02:51:35 10° E visible
30 May - 04:30:18 10° W 04:34:10 46° SSW 04:38:10 10° SE visible
30 May - 06:18:25 10° WSW 06:20:28 13° SSW 06:22:36 10° S daylight
30 May - 22:48:43 10° SSW 22:52:37 23° SSE 22:56:09 10° E night (unlit)
31 May - 00:34:37 10° WSW 00:39:11 61° SSE 00:43:17 10° E night (unlit)
31 May - 02:21:41 10° W 02:25:56 84° S 02:29:59 10° E visible
31 May - 04:08:42 10° W 04:12:34 44° SSW 04:16:30 10° SE visible
31 May - 05:57:02 10° WSW 05:58:49 13° SSW 06:00:40 10° S daylight
31 May - 22:26:48 10° SSW 22:30:58 24° SSE 22:34:41 10° E visible
01 Jun - 00:12:50 10° WSW 00:17:34 63° SSE 00:21:44 10° E night (unlit)
01 Jun - 01:59:58 10° W 02:04:20 84° S 02:08:23 10° E visible
01 Jun - 03:47:04 10° W 03:50:57 43° SSW 03:54:49 10° SE visible
01 Jun - 05:35:39 10° SW 05:37:11 12° SW 05:38:43 10° SSW daylight
01 Jun - 22:04:52 10° SSW 22:09:16 26° SSE 22:13:11 10° E visible
01 Jun - 23:51:01 10° WSW 23:55:56 65° SSE 00:00:11 10° E visible
02 Jun - 01:38:15 10° W 01:42:44 84° S 01:46:49 10° E night (unlit)
02 Jun - 03:25:25 10° W 03:29:21 42° SSW 03:33:11 10° SE visible
02 Jun - 05:14:18 10° SW 05:15:31 11° SW 05:16:45 10° SSW visible
02 Jun - 21:42:55 10° SSW 21:47:35 27° SSE 21:51:41 10° E visible
02 Jun - 23:29:12 10° WSW 23:34:16 66° SSE 23:38:39 10° E visible
